Showing default

ICEYE-X65, 66300

Orbit data source: Space-Track

ICEYE-X65, 66300 is an Emirian payload satellite in LEO that was launched on Sun, 02 Nov 2025 UTC via an FALCON 9 launch vehicle from the Air Force Eastern Test Range (AFETR). Payload-class satellites include a variety of spacecraft equipped with specific instruments for various scientific and technological missions. These include communications satellites like Starlink; space stations such as the ISS; scientific satellites like the Hubble; Earth observation satellites from companies like Planet Labs, Umbra, and HawkEye 360; GPS; miniature CubeSats for education and research; and military/defense satellites.

Loading next visibility...
Identifier
66300, 2025-248H
Orbit
LEO
Country
Flag of AEAE / UAE
Related business
None
Manufacturer
SP42
Mission
Operational Commercial Radar Imaging
Bus & Motor
ICEYE, Unknown motor
Mass
80 kg wet, 80 kg dry
Launch date (UTC)
2025-11-02 (8 months ago)
Launch vehicle
FALCON 9
Launch site
Air Force Eastern Test Range (AFETR)
Object type
Payload
Rocket body
Debris
Shape & HBR
Box + 1 Pan, 2.4 m
Radar Cross Section
0.776 m², Medium (>0.1 m² and < 1m²)

Expand to show TLE details & history
Last TLE update: 14 hours ago

TLE from 14 hours ago
0 ICEYE-X65
1 66300U 25248H   26171.26228576  .00001361  00000-0  10369-3 0  9994
2 66300  45.4049 118.0019 0004681  39.6151 320.5072 15.07761391 35981
Epoch: 2026-06-20T06:17Z
TLE epoch observation values (Epoch: 2026-06-20T06:17:41.489Z)
Latitude
-0.00002°
Longitude
115.09957°
Altitude
540.586 km
Speed
7.595 km/s
True Right ascension
07h 52m 00s
True Declination
0° 00' 00"
Sunlit
Object was in daylight at epoch
Visualization orbit readout
Latitude
Unknown
Longitude
Unknown
Altitude
Unknown
Speed
Unknown
Apparent Right ascension
Unknown
Apparent Declination
Unknown
Sunlit
N/A
Visualization observer readout
Local Sidereal Time
07:18:25
Azimuth
Unknown
Elevation
Unknown
Doppler factor
Unknown
Orbital elements
Apogee altitude
547.811 km
Perigee altitude
541.33 km
Semi-major axis
6,922.707 km
Eccentricity
0.00047
Inclination
45.4049°
RAAN
118.0019°
Arg. of periapsis
39.6151°
True anomaly
320.47307°
Mean anomaly
320.5072°
Eccentric anomaly
320.49014°
Mean motion
3.76816 °/min
Orbital period
95.54 mins
BSTAR
0.00010369
Loading maneuver chart data...
Computing Atmospheric mass density...
Loading historical data...
Loading historical data...
Loading historical data...
Loading historical data...
Loading historical data...
Loading historical data...
Loading historical data...

Documentation

Showing up to 5 results
|